User: anonymous   Login
Location: Brainerd
(46.3580°N, 94.2010°W)
Time: 02:26:25
(UTC-06:00)
Language:

CZ-4C R/B - Orbit

View from above orbital plane
View from above orbital plane
View from above satellite
View from above satellite

Ground track
Ground track

The orbit data is extracted from the following two-line orbital elements,

1 32290U 07055B   18021.42100204 +.00001586 +00000-0 +44687-4 0  9991
2 32290 097.5428 137.7982 0066577 074.2054 286.6517 15.35877192565226
Epoch (UTC): 21 January 2018 10:06:14
Eccentricity: 0.0066577
inclination: 97.5428°
perigee height: 413 km
apogee height: 504 km
right ascension of ascending node: 137.7982°
argument of perigee: 74.2054°
revolutions per day: 15.35877192
mean anomaly at epoch: 286.6517°
orbit number at epoch: 56522

The dashed part of the orbit path shows where the satellite is in the earth's shadow,  

DLR